Location: Allentsteig
(48.6833°N, 15.3167°E)
Time: 17:27:56
(UTC+00:00)

Spot 2 Rocket - Pass Details

Date: 18 September 2020
Orbit: 758 x 771 km, 98.6° (Epoch: 30 October)

Event Time Altitude Azimuth Distance (km) Brightness Sun altitude
Exits shadow 19:48:05 64° 46° (NE) 843 3.5 -26.0°
Drops below altitude 10° 19:52:45 10° 350° (N) 2,300 6.5 -26.6°
Sets 19:55:04 0° 348° (NNW) 3,230 7.5 -26.9°
